Tracking 19909 objects as of 21-Oct-2019
HD Live streaming from Space Station
objects crossing your sky now

METEOR 2-8 DEB

Track METEOR 2-8 DEB now!
10-day predictions


NORAD ID: 36862
Int'l Code: 1982-025AZ
Perigee: 864.4 km
Apogee: 887.9 km
Inclination: 82.5 °
Period: 102.3 minutes
Semi major axis: 7247 km
RCS: 0.0072 m2 (small)
Launch date: March 25, 1982
Source: Commonwealth of Independent States (former USSR) (CIS)
Launch site: PLESETSK MISSILE AND SPACE COMPLEX (PKMTR)

Note: This is SATELLITE DEBRIS
aabbcc
Your satellite tracking list
Your tracking list is empty




NASA's NSSDC Master Catalog

Two Line Element Set (TLE):
1 36862U 82025AZ  19232.11490050  .00000092  00000-0  45560-4 0  9994
2 36862  82.5462 163.3458 0016163 346.2635  13.8096 14.07188796678155
Source of the keplerian elements: AFSPC